Location: Delettes
(50.6178°N, 2.2123°E)
Time: 09:00:33
(UTC+00:00)

Cosmos 468 Rocket - Pass Details

Date: 27 February 2020
Orbit: 744 x 780 km, 74.0° (Epoch: 03 April)

Event Time Altitude Azimuth Distance (km) Brightness Sun altitude
Rises 18:40:23 0° 189° (S) 3,237 7.3 -12.2°
Reaches altitude 10° 18:42:46 10° 185° (S) 2,318 6.5 -12.6°
Maximum altitude 18:47:56 57° 108° (ESE) 914 4.1 -13.4°
Drops below altitude 10° 18:53:09 10° 31° (NNE) 2,345 6.3 -14.2°
Sets 18:55:34 0° 27° (NNE) 3,277 7.0 -14.6°
